Regional Weather Roundup
Issued by NWS Cleveland, OH

Home | Current Version | Previous Version | Text Only | Print | Product List | Glossary On
Versions: 1 2 3 4 5 6 7 8 9 10 11 12 13 14 15 16 17 18 19 20 21 22 23 24 25 26 27 28 29 30 31 32 33 34 35 36 37 38 39 40 41 42 43 44 45 46 47 48 49 50
157
ASUS41 KCLE 200202
RWRCLE
OHIO REGIONAL WEATHER ROUNDUP
NATIONAL WEATHER SERVICE CLEVELAND, OH
900 PM EST MON FEB 19 2018

NOTE: "FAIR" INDICATES FEW OR NO CLOUDS BELOW 12,000 FEET WITH NO
SIGNIFICANT WEATHER AND/OR OBSTRUCTIONS TO VISIBILITY.

OHZ001>008-015>018-024>027-034-035-043-044-200300-
   NORTHWEST OHIO

CITY           SKY/WX    TMP DP  RH WIND       PRES   REMARKS
DEFIANCE       LGT RAIN  57  55  93 SW6       30.00R
FINDLAY        LGT RAIN  60  55  83 S10       30.00R
TOLEDO EXPRESS LGT RAIN  58  58 100 SW12      29.99R
TOLEDO EXEC    LGT RAIN  58  55  90 SW8       30.01R FOG
LIMA           CLOUDY    61  58  90 S9        30.01S
$$

OHZ009>014-019>023-028>033-038-089-200300-
   NORTHEAST OHIO

CITY           SKY/WX    TMP DP  RH WIND       PRES   REMARKS
CLE-HOPKINS    MOCLDY    64  57  78 S17G25    30.04R
CLE-LAKEFRONT  FAIR      65  56  72 S21G29    29.99S
CUY CO. ARPT   MOCLDY    64  57  77 S14G23    30.03R
LORAIN-ELYRIA  FAIR      62  53  72 SW12G21   30.01R
ASHTABULA      FAIR      56  55  97 S8        30.05S
AKRON-CANTON   CLOUDY    62  54  74 S16       30.08R
WOOSTER        FAIR      59  55  87 S10       30.07R
MANSFIELD      FAIR      62  57  83 S17G26    30.06R
YOUNGSTOWN     CLOUDY    60  55  83 S10G22    30.06F
$$

OHZ042-051>053-060>062-070>072-077>081-200300-
  SOUTHWEST OHIO

CITY           SKY/WX    TMP DP  RH WIND       PRES   REMARKS
CINC-COVINGTON MOCLDY    66  56  70 S14       30.08S
CINC-LUNKEN    FAIR      66  56  70 S13       30.09R
HAMILTON       FAIR      68  56  65 VRB7      30.07S
DAYTON         CLOUDY    66  56  70 S16G23    30.06S
WRIGHT-PAT AFB FAIR      65  55  69 S13       30.06R
DAYTON GENERAL FAIR      66  55  67 S17G23    30.06S
WILMINGTON     FAIR      63  56  78 S15       30.09R
$$

OHZ036-037-039>041-045>050-054>059-063>069-073>076-082>088-200300-
  CENTRAL AND SOUTHEAST OHIO

CITY           SKY/WX    TMP DP  RH WIND       PRES   REMARKS
COLUMBUS       MOCLDY    66  56  70 S14       30.09R
OSU AIRPORT    FAIR      65  57  75 S14       30.08R
BOLTON FIELD   FAIR      64  56  75 S12G17    30.09S
RICKENBACK AFB FAIR      64  56  75 SW15      30.10R
NEWARK         FAIR      63  54  72 SW7       30.09R
MARION         MOCLDY    63  55  75 S17       30.05R
LANCASTER      FAIR      66  54  65 S8        30.11S
ZANESVILLE     FAIR      63  53  70 S8        30.11R
NEW PHILLY     NOT AVBL
$$




USA.gov is the U.S. government's official web portal to all federal, state and local government web resources and services.